Welcome to Des Moines Iowa Weather. I am an independent private personal weather station on the Northwest Side of Des Moines, Iowa. Just East of Windsor Heights and just West of Glendale . This site is also mobile friendly.

There are no active watches, warnings or advisories


Visit our other weather sites:

Historical Data

Weather Station Setup



Weather Underground History page Text

Daily Summary for February 22, 2018 Units:  English    Metric   Both
« Previous Day
Next Day »
Daily Weekly Monthly Yearly Custom
  High: Low: Average:
Temperature: 32.7 °F 23.4 °F 29.9 °F
Dew Point: 32.0 °F 18.0 °F 27.7 °F
Humidity: 96 % 77 % 91 %
Wind Speed: 6.0 mph 0.0 mph 1.6 mph
Wind Gust: 12.0 mph - -
Wind:- - ESE
Pressure: 30.60 in 30.19 in -
Precipitation: 0.00 in    
Historical Graphs
 
 
Tabular Data for February 22, 2018
Time Temperature Dew Point Pressure Wind Wind Speed Wind Gust Humidity Rainfall Rate (Hourly)
00:09 23.4 °F 18.0 °F 30.59 in ENE 5.0 mph 5.0 mph 78 % 0.00 in
00:24 23.5 °F 18.0 °F 30.59 in ENE 1.0 mph 5.0 mph 78 % 0.00 in
00:39 23.5 °F 18.0 °F 30.59 in ENE 3.0 mph 6.0 mph 78 % 0.00 in
00:54 23.6 °F 18.0 °F 30.59 in ENE 2.0 mph 4.0 mph 78 % 0.00 in
01:09 23.7 °F 18.0 °F 30.59 in NNE 3.0 mph 5.0 mph 78 % 0.00 in
01:24 23.8 °F 18.0 °F 30.58 in East 3.0 mph 4.0 mph 77 % 0.00 in
01:39 23.9 °F 18.0 °F 30.59 in ENE 1.0 mph 3.0 mph 77 % 0.00 in
01:54 24.0 °F 18.0 °F 30.58 in Calm   4.0 mph 77 % 0.00 in
02:09 24.1 °F 18.0 °F 30.58 in Calm   3.0 mph 77 % 0.00 in
02:24 24.1 °F 18.0 °F 30.59 in ENE 1.0 mph 3.0 mph 77 % 0.00 in
02:39 24.1 °F 18.0 °F 30.60 in NE 2.0 mph 2.0 mph 77 % 0.00 in
02:54 24.2 °F 18.0 °F 30.58 in Calm   2.0 mph 77 % 0.00 in
03:09 24.2 °F 18.0 °F 30.56 in NE 1.0 mph 4.0 mph 78 % 0.00 in
03:25 24.2 °F 18.0 °F 30.57 in Calm   3.0 mph 78 % 0.00 in
03:39 24.2 °F 18.0 °F 30.54 in ENE 5.0 mph 6.0 mph 78 % 0.00 in
03:54 24.3 °F 19.0 °F 30.54 in NNE 3.0 mph 8.0 mph 79 % 0.00 in
04:09 24.3 °F 19.0 °F 30.52 in ENE 3.0 mph 8.0 mph 79 % 0.00 in
04:24 24.3 °F 19.0 °F 30.52 in ENE 3.0 mph 6.0 mph 79 % 0.00 in
04:39 24.3 °F 19.0 °F 30.51 in ENE 2.0 mph 5.0 mph 79 % 0.00 in
04:55 24.3 °F 19.0 °F 30.54 in NNE 1.0 mph 4.0 mph 79 % 0.00 in
05:09 24.4 °F 19.0 °F 30.55 in Calm   4.0 mph 79 % 0.00 in
05:25 24.4 °F 19.0 °F 30.56 in Calm   3.0 mph 79 % 0.00 in
05:40 24.6 °F 19.0 °F 30.55 in NNE 4.0 mph 5.0 mph 79 % 0.00 in
05:55 24.5 °F 19.0 °F 30.56 in NNE 1.0 mph 5.0 mph 80 % 0.00 in
06:10 24.5 °F 19.0 °F 30.54 in ENE 2.0 mph 4.0 mph 80 % 0.00 in
06:25 24.5 °F 19.0 °F 30.53 in ENE 2.0 mph 6.0 mph 80 % 0.00 in
06:40 24.5 °F 19.0 °F 30.53 in NE 1.0 mph 6.0 mph 80 % 0.00 in
06:55 24.5 °F 19.0 °F 30.53 in East 2.0 mph 6.0 mph 80 % 0.00 in
07:10 24.6 °F 19.0 °F 30.52 in East 1.0 mph 9.0 mph 80 % 0.00 in
07:25 24.5 °F 20.0 °F 30.52 in ENE 1.0 mph 6.0 mph 82 % 0.00 in
07:40 24.5 °F 20.0 °F 30.52 in NE 2.0 mph 4.0 mph 82 % 0.00 in
07:55 24.7 °F 20.0 °F 30.52 in ENE 2.0 mph 7.0 mph 82 % 0.00 in
08:10 25.1 °F 20.0 °F 30.52 in ENE 1.0 mph 5.0 mph 81 % 0.00 in
08:25 25.3 °F 20.0 °F 30.51 in ENE 3.0 mph 8.0 mph 80 % 0.00 in
08:40 25.1 °F 21.0 °F 30.49 in ENE 3.0 mph 9.0 mph 83 % 0.00 in
08:55 25.1 °F 22.0 °F 30.49 in ENE 2.0 mph 9.0 mph 86 % 0.00 in
09:10 25.2 °F 22.0 °F 30.49 in ESE 1.0 mph 9.0 mph 87 % 0.00 in
09:25 25.4 °F 22.0 °F 30.49 in ENE 1.0 mph 6.0 mph 87 % 0.00 in
09:40 25.6 °F 22.0 °F 30.49 in SSE 2.0 mph 7.0 mph 87 % 0.00 in
09:55 26.0 °F 23.0 °F 30.49 in ENE 5.0 mph 9.0 mph 87 % 0.00 in
10:10 26.2 °F 23.0 °F 30.48 in Calm   8.0 mph 87 % 0.00 in
10:25 26.6 °F 23.0 °F 30.47 in East 1.0 mph 6.0 mph 87 % 0.00 in
10:40 27.0 °F 24.0 °F 30.46 in NNE 1.0 mph 6.0 mph 88 % 0.00 in
10:55 27.0 °F 24.0 °F 30.46 in Calm   6.0 mph 88 % 0.00 in
11:10 27.4 °F 25.0 °F 30.46 in South 5.0 mph 7.0 mph 89 % 0.00 in
11:25 27.3 °F 25.0 °F 30.47 in SSE 1.0 mph 8.0 mph 89 % 0.00 in
11:40 27.7 °F 25.0 °F 30.45 in SSE 2.0 mph 7.0 mph 90 % 0.00 in
11:55 28.1 °F 26.0 °F 30.44 in ENE 2.0 mph 7.0 mph 90 % 0.00 in
12:10 28.4 °F 26.0 °F 30.43 in ESE 2.0 mph 6.0 mph 90 % 0.00 in
12:25 28.5 °F 26.0 °F 30.42 in SSE 2.0 mph 7.0 mph 90 % 0.00 in
12:40 28.8 °F 26.0 °F 30.40 in ESE 1.0 mph 6.0 mph 90 % 0.00 in
12:55 29.2 °F 27.0 °F 30.40 in SE 1.0 mph 5.0 mph 91 % 0.00 in
13:11 29.6 °F 27.0 °F 30.39 in SSE 2.0 mph 7.0 mph 91 % 0.00 in
13:26 29.8 °F 28.0 °F 30.39 in SSE 1.0 mph 6.0 mph 92 % 0.00 in
13:41 29.9 °F 28.0 °F 30.40 in SSE 1.0 mph 7.0 mph 92 % 0.00 in
13:56 29.9 °F 28.0 °F 30.39 in SE 1.0 mph 5.0 mph 92 % 0.00 in
14:11 30.2 °F 28.0 °F 30.38 in SE 2.0 mph 4.0 mph 92 % 0.00 in
14:26 30.4 °F 29.0 °F 30.39 in Calm   3.0 mph 93 % 0.00 in
14:41 30.6 °F 29.0 °F 30.38 in Calm   2.0 mph 93 % 0.00 in
15:00 30.7 °F 29.0 °F 30.37 in SE 1.0 mph 3.0 mph 93 % 0.00 in
15:12 30.8 °F 29.0 °F 30.36 in ENE 1.0 mph 4.0 mph 93 % 0.00 in
15:26 31.1 °F 29.0 °F 30.34 in ENE 1.0 mph 6.0 mph 93 % 0.00 in
15:41 31.2 °F 29.0 °F 30.35 in Calm   5.0 mph 93 % 0.00 in
15:56 31.4 °F 30.0 °F 30.33 in SE 1.0 mph 4.0 mph 93 % 0.00 in
16:11 31.4 °F 30.0 °F 30.32 in ENE 2.0 mph 6.0 mph 93 % 0.00 in
16:26 31.4 °F 30.0 °F 30.32 in NE 2.0 mph 4.0 mph 94 % 0.00 in
16:41 31.5 °F 30.0 °F 30.30 in Calm   4.0 mph 94 % 0.00 in
16:56 31.5 °F 30.0 °F 30.29 in SSE 3.0 mph 7.0 mph 94 % 0.00 in
17:11 31.5 °F 30.0 °F 30.30 in SSE 4.0 mph 6.0 mph 94 % 0.00 in
17:20 31.5 °F 30.0 °F 30.30 in SSE 2.0 mph 10.0 mph 94 % 0.00 in
17:25 31.5 °F 30.0 °F 30.30 in SSE 2.0 mph 10.0 mph 94 % 0.00 in
17:26 31.4 °F 30.0 °F 30.27 in ENE 2.0 mph 6.0 mph 94 % 0.00 in
17:30 31.5 °F 30.0 °F 30.30 in SSE 2.0 mph 10.0 mph 94 % 0.00 in
17:35 31.4 °F 29.9 °F 30.27 in ENE 3.0 mph 9.0 mph 94 % 0.00 in
17:40 31.4 °F 29.9 °F 30.27 in ENE 3.0 mph 9.0 mph 94 % 0.00 in
17:41 31.4 °F 30.0 °F 30.26 in SSE 2.0 mph 6.0 mph 94 % 0.00 in
17:45 31.4 °F 29.9 °F 30.27 in ENE 3.0 mph 9.0 mph 94 % 0.00 in
17:50 31.4 °F 29.9 °F 30.26 in ENE 2.0 mph 8.0 mph 94 % 0.00 in
17:55 31.4 °F 29.9 °F 30.26 in ENE 2.0 mph 8.0 mph 94 % 0.00 in
17:56 31.5 °F 30.0 °F 30.26 in SSE 6.0 mph 7.0 mph 94 % 0.00 in
18:00 31.5 °F 30.0 °F 30.26 in South 2.0 mph 8.0 mph 94 % 0.00 in
18:05 31.5 °F 30.0 °F 30.26 in South 2.0 mph 8.0 mph 94 % 0.00 in
18:10 31.5 °F 30.0 °F 30.26 in South 2.0 mph 8.0 mph 94 % 0.00 in
18:11 31.6 °F 30.0 °F 30.26 in SE 3.0 mph 10.0 mph 94 % 0.00 in
18:15 31.6 °F 30.1 °F 30.25 in SE 4.0 mph 12.0 mph 94 % 0.00 in
18:20 31.6 °F 30.1 °F 30.25 in SE 4.0 mph 12.0 mph 94 % 0.00 in
18:25 31.6 °F 30.1 °F 30.25 in SE 4.0 mph 12.0 mph 94 % 0.00 in
18:26 31.6 °F 30.0 °F 30.25 in SSE 3.0 mph 9.0 mph 95 % 0.00 in
18:30 31.6 °F 30.3 °F 30.25 in ENE 3.0 mph 12.0 mph 95 % 0.00 in
18:35 31.6 °F 30.3 °F 30.25 in ENE 3.0 mph 12.0 mph 95 % 0.00 in
18:40 31.6 °F 30.3 °F 30.25 in ENE 3.0 mph 12.0 mph 95 % 0.00 in
18:41 31.7 °F 31.0 °F 30.23 in ESE 2.0 mph 7.0 mph 95 % 0.00 in
18:45 31.6 °F 30.3 °F 30.25 in ENE 3.0 mph 12.0 mph 95 % 0.00 in
18:50 31.7 °F 30.4 °F 30.23 in SE 3.0 mph 10.0 mph 95 % 0.00 in
18:55 31.7 °F 30.4 °F 30.23 in SE 3.0 mph 10.0 mph 95 % 0.00 in
18:56 31.8 °F 31.0 °F 30.23 in SSE 1.0 mph 7.0 mph 95 % 0.00 in
19:00 31.7 °F 30.4 °F 30.23 in SE 3.0 mph 10.0 mph 95 % 0.00 in
19:05 31.8 °F 30.5 °F 30.23 in SSE 3.0 mph 8.0 mph 95 % 0.00 in
19:10 31.8 °F 30.5 °F 30.23 in SSE 3.0 mph 8.0 mph 95 % 0.00 in
19:11 31.9 °F 31.0 °F 30.24 in South 1.0 mph 6.0 mph 95 % 0.00 in
19:15 31.8 °F 30.5 °F 30.23 in SSE 3.0 mph 8.0 mph 95 % 0.00 in
19:20 31.9 °F 30.6 °F 30.24 in SSE 2.0 mph 6.0 mph 95 % 0.00 in
19:25 31.9 °F 30.6 °F 30.24 in SSE 2.0 mph 6.0 mph 95 % 0.00 in
19:26 32.0 °F 31.0 °F 30.25 in SE 3.0 mph 4.0 mph 95 % 0.00 in
19:30 32.0 °F 30.7 °F 30.25 in ESE 2.0 mph 7.0 mph 95 % 0.00 in
19:35 32.0 °F 30.7 °F 30.25 in ESE 2.0 mph 7.0 mph 95 % 0.00 in
19:40 32.0 °F 30.7 °F 30.25 in ESE 2.0 mph 7.0 mph 95 % 0.00 in
19:41 32.0 °F 31.0 °F 30.24 in South 2.0 mph 8.0 mph 95 % 0.00 in
19:45 32.1 °F 30.8 °F 30.24 in SSE 3.0 mph 9.0 mph 95 % 0.00 in
19:50 32.1 °F 30.8 °F 30.24 in SSE 3.0 mph 9.0 mph 95 % 0.00 in
19:55 32.1 °F 30.8 °F 30.24 in SSE 3.0 mph 9.0 mph 95 % 0.00 in
19:56 32.2 °F 31.0 °F 30.23 in SE 3.0 mph 5.0 mph 95 % 0.00 in
20:00 32.1 °F 30.8 °F 30.23 in SE 2.0 mph 6.0 mph 95 % 0.00 in
20:05 32.1 °F 30.8 °F 30.23 in SE 2.0 mph 6.0 mph 95 % 0.00 in
20:10 32.1 °F 30.8 °F 30.23 in SE 2.0 mph 6.0 mph 95 % 0.00 in
20:11 32.2 °F 31.0 °F 30.23 in South 3.0 mph 7.0 mph 95 % 0.00 in
20:15 32.2 °F 30.9 °F 30.23 in South 2.0 mph 8.0 mph 95 % 0.00 in
20:20 32.2 °F 30.9 °F 30.23 in South 2.0 mph 8.0 mph 95 % 0.00 in
20:25 32.2 °F 30.9 °F 30.23 in South 2.0 mph 8.0 mph 95 % 0.00 in
20:26 32.3 °F 31.0 °F 30.21 in Calm   6.0 mph 95 % 0.00 in
20:30 32.2 °F 30.9 °F 30.23 in South 2.0 mph 8.0 mph 95 % 0.00 in
20:35 32.3 °F 31.0 °F 30.21 in SE 2.0 mph 7.0 mph 95 % 0.00 in
20:40 32.3 °F 31.0 °F 30.21 in SE 2.0 mph 7.0 mph 95 % 0.00 in
20:41 32.4 °F 31.0 °F 30.21 in East 1.0 mph 6.0 mph 96 % 0.00 in
20:45 32.3 °F 31.0 °F 30.21 in SE 2.0 mph 7.0 mph 95 % 0.00 in
20:50 32.4 °F 31.4 °F 30.20 in SSE 2.0 mph 6.0 mph 96 % 0.00 in
20:55 32.4 °F 31.4 °F 30.20 in SSE 2.0 mph 6.0 mph 96 % 0.00 in
20:56 32.5 °F 32.0 °F 30.20 in SSE 1.0 mph 9.0 mph 96 % 0.00 in
21:00 32.4 °F 31.4 °F 30.20 in SSE 2.0 mph 6.0 mph 96 % 0.00 in
21:05 32.5 °F 31.5 °F 30.21 in ESE 2.0 mph 10.0 mph 96 % 0.00 in
21:10 32.5 °F 31.5 °F 30.21 in ESE 2.0 mph 10.0 mph 96 % 0.00 in
21:11 32.6 °F 32.0 °F 30.20 in Calm   4.0 mph 96 % 0.00 in
21:22 32.6 °F 31.6 °F 30.19 in East 1.0 mph   96 % 0.00 in
21:27 32.6 °F 31.6 °F 30.20 in Calm   4.0 mph 96 % 0.00 in
21:30 32.6 °F 31.6 °F 30.20 in SE 2.0 mph 2.0 mph 96 % 0.00 in
21:35 32.6 °F 31.6 °F 30.20 in South 2.0 mph 8.0 mph 96 % 0.00 in
21:40 32.6 °F 31.6 °F 30.20 in South 2.0 mph 8.0 mph 96 % 0.00 in
21:42 32.6 °F 32.0 °F 30.21 in South 2.0 mph 5.0 mph 96 % 0.00 in
21:45 32.6 °F 31.6 °F 30.20 in South 2.0 mph 8.0 mph 96 % 0.00 in
21:50 32.6 °F 31.6 °F 30.21 in South 1.0 mph 6.0 mph 96 % 0.00 in
21:55 32.6 °F 31.6 °F 30.21 in South 1.0 mph 6.0 mph 96 % 0.00 in
21:57 32.7 °F 32.0 °F 30.21 in Calm   2.0 mph 96 % 0.00 in
22:00 32.6 °F 31.6 °F 30.21 in South 1.0 mph 6.0 mph 96 % 0.00 in
22:05 32.6 °F 31.6 °F 30.21 in Calm   3.0 mph 96 % 0.00 in
22:10 32.6 °F 31.6 °F 30.21 in Calm   3.0 mph 96 % 0.00 in
22:12 32.7 °F 32.0 °F 30.20 in Calm   3.0 mph 96 % 0.00 in
22:15 32.6 °F 31.6 °F 30.21 in Calm   3.0 mph 96 % 0.00 in
22:20 32.6 °F 31.6 °F 30.20 in Calm   3.0 mph 96 % 0.00 in
22:25 32.6 °F 31.6 °F 30.20 in Calm   3.0 mph 96 % 0.00 in
22:27 32.6 °F 32.0 °F 30.21 in Calm   3.0 mph 96 % 0.00 in
22:30 32.6 °F 31.6 °F 30.20 in Calm   3.0 mph 96 % 0.00 in
22:35 32.6 °F 31.6 °F 30.21 in Calm   3.0 mph 96 % 0.00 in
22:40 32.6 °F 31.6 °F 30.21 in Calm   3.0 mph 96 % 0.00 in
22:42 32.6 °F 32.0 °F 30.20 in Calm     96 % 0.00 in
22:45 32.6 °F 31.6 °F 30.21 in Calm   3.0 mph 96 % 0.00 in
22:50 32.6 °F 31.6 °F 30.21 in Calm   1.0 mph 96 % 0.00 in
22:55 32.6 °F 31.6 °F 30.21 in Calm   1.0 mph 96 % 0.00 in
22:57 32.6 °F 32.0 °F 30.21 in Calm   2.0 mph 96 % 0.00 in
23:00 32.6 °F 31.6 °F 30.21 in Calm   1.0 mph 96 % 0.00 in
23:05 32.6 °F 31.6 °F 30.21 in Calm   2.0 mph 96 % 0.00 in
23:10 32.6 °F 31.6 °F 30.21 in Calm   2.0 mph 96 % 0.00 in
23:12 32.6 °F 32.0 °F 30.21 in Calm     96 % 0.00 in
23:15 32.6 °F 31.6 °F 30.21 in Calm   2.0 mph 96 % 0.00 in
23:20 32.5 °F 31.5 °F 30.21 in Calm   1.0 mph 96 % 0.00 in
23:25 32.5 °F 31.5 °F 30.21 in Calm   1.0 mph 96 % 0.00 in
23:27 32.5 °F 32.0 °F 30.20 in Calm     96 % 0.00 in
23:30 32.5 °F 31.5 °F 30.21 in Calm   1.0 mph 96 % 0.00 in
23:35 32.5 °F 31.5 °F 30.20 in Calm     96 % 0.00 in
23:40 32.5 °F 31.5 °F 30.20 in Calm     96 % 0.00 in
23:42 32.5 °F 32.0 °F 30.20 in Calm     96 % 0.00 in
23:45 32.5 °F 31.5 °F 30.20 in Calm     96 % 0.00 in
23:50 32.5 °F 31.5 °F 30.19 in Calm     96 % 0.00 in
23:55 32.5 °F 31.5 °F 30.19 in Calm     96 % 0.00 in
23:57 32.5 °F 32.0 °F 30.19 in Calm     96 % 0.00 in
Des Moines Weather and Climate
Compliments of Weather Underground - 3.25 mb

Script developed by  Jim McMurry - jmcmurry@mwt.net Adapted for the template by  Wim van der Kuil - Leuven-Template.eu

You find our weather info also at:

Weather Underground

Equipment we use:

Weather-station
Davis VP2 Plus

Weather-program
Davis Weatherlink.Com

Weather-server
iMac (Retina 4K, 21.5-inch, Late 2015)

Provider
Hostmonster.com

Davis VP2 Plus

Davis Weatherlink.Com

iMac (Retina 4K, 21.5-inch, Late 2015)

Hostmonster.com